Location: Albany
(35.0170°S, 117.8920°E)
Time: 23:14:46
(UTC+08:00)

Explorer 11/Cluster Stage 4 - Pass Details

Date: 31 January 2021
Orbit: 467 x 1257 km, 28.8° (Epoch: 06 March)

Event Time Altitude Azimuth Distance (km) Brightness Sun altitude
Rises 05:35:58 0° 302° (WNW) 4,186 9.6 0.9°
Reaches altitude 10° 05:39:10 10° 308° (NW) 3,184 9.1 1.5°
Maximum altitude 05:46:30 40° 14° (NNE) 1,619 8.2 3.0°
Drops below altitude 10° 05:52:56 10° 80° (E) 2,787 10.7 4.2°
Sets 05:55:34 0° 88° (E) 3,619 11.6 4.7°
